Dewpoint
54 53 51 52 52 51 50 49 46 48 51 51 47 48 52 58 59 59 61 61 62 62 64 65 67 69 69 69 69 68 68 68 69 68 66 67 66 67 66 67 68 69 69 70
51 50 52 51 50 50 51 49 48 48 53 51 51 50 50 55 55 58 59 61 61 62 63 65 67 68 69 69 69 68 68 69 69 68 67 68 67 67 67 67 67 68 69 68
47 47 50 50 50 49 48 49 48 47 53 55 52 50 51 54 57 56 54 59 61 62 63 65 66 68 68 69 68 68 68 69 69 69 68 69 68 68 67 67 67 67 68 69
47 48 47 46 47 48 46 49 49 51 50 46 53 45 49 52 55 55 55 56 57 60 62 64 65 67 68 69 69 69 68 69 69 69 69 68 67 66 67 67 68 67 68 68
46 44 45 46 46 48 46 52 50 53 49 47 49 47 47 55 54 55 55 55 57 61 61 63 66 67 67 69 69 69 69 69 70 69 70 69 68 68 68 68 68 68 69 69
45 46 44 44 49 48 51 50 49 50 47 41 45 46 44 45 51 53 56 55 57 60 61 63 66 68 68 69 70 70 70 69 69 70 69 69 68 68 67 67 67 68 68 67
40 43 45 47 45 48 49 47 41 40 41 41 45 44 43 45 48 52 55 56 57 60 61 63 66 67 68 69 69 70 69 69 69 69 69 69 68 68 68 68 67 67 68 69
38 38 39 44 45 44 46 46 43 35 37 35 45 43 44 50 52 52 55 56 57 57 60 62 64 67 67 68 69 69 69 69 69 69 69 69 69 69 68 68 68 68 68 69
39 39 38 44 48 45 45 44 46 39 41 41 43 46 47 49 51 51 52 55 56 57 58 62 64 66 66 68 69 69 69 69 69 69 69 69 70 69 69 69 69 69 70 70
26 35 33 37 43 46 42 45 42 42 37 35 42 44 44 44 45 50 51 52 54 56 57 60 63 65 66 67 68 69 69 69 69 69 70 70 70 70 70 69 69 69 70 71
29 22 22 33 32 39 44 43 43 43 42 37 35 38 46 46 45 47 51 52 52 54 56 58 62 64 66 66 67 68 69 69 69 69 70 70 70 70 70 69 69 69 70 71
25 24 20 26 27 30 40 42 41 35 35 39 35 35 42 47 47 49 50 55 55 56 55 61 62 65 66 66 67 68 69 69 69 70 70 70 70 70 69 69 70 70 70 71
26 21 18 18 20 25 30 37 41 39 39 38 35 33 43 51 50 51 51 54 54 59 62 63 63 64 65 66 67 68 69 69 70 69 69 69 69 68 69 69 70 70 70 71
35 22 16 13 14 21 25 30 38 37 36 35 37 34 37 42 50 52 52 52 52 58 62 63 63 63 65 67 67 68 68 69 69 69 68 68 68 68 69 69 70 70 71 71
18 16 19 16 15 19 21 25 34 33 32 29 25 36 36 37 46 50 52 52 53 57 61 62 63 63 65 66 67 68 68 69 68 68 67 67 68 69 69 68 70 70 71 71
21 13 18 17 18 17 15 14 30 32 31 34 34 34 35 36 45 51 52 54 54 54 60 62 63 64 64 66 67 68 68 68 68 68 67 68 68 68 68 69 70 71 70 70
23 17 14 12 17 16 16 16 14 17 28 27 33 28 41 47 50 50 51 53 53 55 59 61 62 63 64 65 66 67 68 68 68 68 68 67 67 68 69 69 70 70 70 68
24 21 20 19 24 16 16 21 17 16 17 27 32 32 38 45 48 51 53 54 55 58 57 62 62 63 63 65 66 66 68 68 68 68 67 67 67 67 68 68 70 70 69 68
26 24 23 19 17 20 21 24 21 18 19 19 30 32 43 53 54 52 55 58 58 59 60 61 62 62 65 65 66 67 67 68 67 67 67 67 67 66 67 68 70 70 68 67
27 25 24 26 19 17 24 30 35 27 25 28 38 40 45 52 43 42 55 58 57 59 61 62 62 62 64 65 66 67 67 67 66 66 66 67 67 67 67 68 69 68 68 67
22 24 23 28 23 25 32 32 37 26 28 38 51 50 49 49 46 50 55 57 57 59 61 62 62 62 64 66 67 67 67 67 68 67 65 66 67 68 68 69 69 69 68 67
16 18 24 26 24 22 32 36 34 37 39 49 50 48 48 51 53 55 55 55 57 57 60 61 62 63 64 66 66 67 67 68 68 66 65 65 66 67 68 70 69 68 67 66
19 26 27 27 28 33 36 35 35 37 44 50 53 55 53 53 55 58 55 55 57 58 61 61 61 63 64 66 66 66 67 68 66 65 65 66 68 68 70 69 69 67 67 66
30 31 28 29 32 32 33 33 34 37 38 47 52 54 57 58 58 59 59 56 57 59 61 63 63 64 65 66 66 66 67 67 67 66 66 67 68 68 70 69 69 68 66 66
30 30 29 30 32 33 35 34 35 37 40 41 46 53 54 56 56 58 58 60 62 63 62 64 64 65 66 67 67 67 68 68 68 68 68 68 68 68 69 69 68 68 68 66
29 28 30 29 32 34 35 35 37 39 44 44 42 43 50 54 55 56 55 56 58 60 62 64 64 66 67 68 68 68 69 69 68 69 70 70 69 69 69 68 68 58 59 56
Lifted_Index
-0 -0 -1 -1 -1 -1 -1 -1 -1 -1 -1 -0 -0 0 0 -0 -1 -2 -2 -2 -3 -3 -3 -3 -3 -3 -3 -3 -3 -2 -2 -2 -1 -1 -1 -0 0 0 0 0 -0 -0 -0 -0
-0 -0 -1 -0 -1 -1 -1 -1 -1 -1 -1 -1 -0 -0 0 1 0 -1 -1 -2 -2 -3 -3 -3 -3 -3 -3 -3 -3 -3 -2 -2 -2 -1 -1 -1 -0 0 0 0 -0 -0 0 0
-1 -1 -0 0 -0 -1 -1 -1 -1 -1 -1 -1 -1 -1 0 1 1 0 -0 -1 -2 -2 -3 -3 -3 -3 -3 -3 -3 -3 -3 -2 -2 -2 -1 -1 -0 -0 0 1 0 0 0 0
-1 -1 -0 -0 -0 -1 -1 -1 -1 -1 -1 -1 -1 -0 -0 -0 0 0 1 0 -1 -1 -2 -2 -3 -3 -3 -3 -3 -3 -3 -3 -2 -2 -1 -1 -1 -0 0 1 1 0 0 0
-1 -1 -1 -1 -1 -1 -1 -1 -1 -1 -1 -1 -0 0 -0 -0 0 1 1 1 0 -0 -1 -2 -2 -3 -3 -3 -3 -3 -3 -3 -2 -2 -1 -1 -1 -1 -0 0 0 -0 -0 0
-0 -1 -1 -1 -1 -1 -1 -1 -1 -1 -1 -0 0 1 0 0 1 1 1 1 1 0 -0 -1 -2 -3 -3 -3 -3 -3 -3 -3 -2 -2 -2 -1 -1 -1 -1 -1 -0 -0 -0 -0
1 0 -0 -1 -1 -1 -1 -1 -1 -1 -0 -0 0 1 1 1 1 1 1 1 0 0 -0 -1 -2 -2 -3 -3 -3 -3 -3 -2 -2 -2 -2 -2 -1 -1 -1 -1 -0 -0 -0 0
1 1 0 -0 -1 -1 -1 -1 -1 -1 -0 0 0 0 0 1 0 0 0 0 0 0 -0 -1 -1 -2 -3 -3 -3 -3 -2 -2 -2 -2 -2 -2 -1 -1 -1 -1 -1 -1 -0 -0
2 1 1 -0 -1 -2 -2 -1 -1 -1 -0 0 0 0 0 1 1 0 0 0 1 0 0 -0 -1 -2 -3 -3 -3 -3 -2 -2 -2 -2 -2 -1 -1 -1 -1 -1 -1 -1 -1 -1
2 2 1 0 -0 -1 -2 -2 -1 -1 -1 -0 0 0 1 1 1 0 0 0 0 1 0 -0 -1 -2 -2 -2 -3 -2 -2 -2 -2 -1 -1 -1 -1 -1 -1 -1 -1 -1 -1 -1
3 3 2 1 1 -1 -2 -2 -1 -1 -1 -0 0 1 1 1 1 1 0 -0 -0 0 0 -0 -1 -2 -2 -2 -2 -2 -2 -2 -1 -1 -0 -0 -0 -0 -1 -1 -1 -1 -1 -1
3 3 2 2 2 0 -1 -1 -1 -1 -0 0 0 1 1 1 1 1 0 -1 -1 -1 -0 -1 -1 -2 -2 -2 -2 -2 -2 -2 -1 -1 -1 -0 -0 -1 -1 -1 -1 -1 -1 -1
3 2 2 2 2 1 0 -0 -0 -0 0 0 1 1 1 1 1 1 0 -0 -1 -1 -1 -1 -1 -2 -2 -2 -2 -2 -2 -2 -2 -1 -1 -1 -1 -1 -1 -1 -1 -1 -1 -1
2 2 1 1 1 1 1 0 0 0 0 0 1 1 1 1 1 1 1 0 -0 -1 -1 -2 -2 -2 -2 -2 -2 -2 -2 -2 -2 -2 -2 -1 -1 -1 -1 -1 -1 -1 -1 -2
1 1 1 1 1 1 1 0 0 -0 -0 0 0 1 1 1 1 1 1 1 0 -1 -2 -2 -2 -2 -2 -2 -2 -3 -3 -3 -3 -2 -2 -2 -1 -1 -1 -1 -1 -1 -2 -2
1 1 1 1 0 0 0 0 0 0 0 0 0 0 0 0 0 0 0 0 -0 -1 -2 -2 -2 -2 -2 -2 -2 -3 -3 -3 -3 -3 -2 -2 -1 -1 -2 -2 -2 -2 -2 -1
1 1 0 0 0 0 0 0 0 0 0 0 0 0 0 0 -0 -0 -0 -1 -1 -1 -2 -2 -2 -2 -2 -2 -2 -3 -3 -3 -3 -3 -2 -2 -1 -2 -2 -2 -2 -2 -2 -1
1 1 0 -0 -0 -0 0 0 0 0 0 0 0 0 0 0 -0 -0 -1 -1 -1 -1 -1 -2 -2 -1 -2 -2 -3 -3 -4 -4 -4 -3 -3 -2 -2 -2 -2 -2 -2 -2 -2 -2
2 2 1 0 -0 -0 0 1 1 1 1 1 1 1 0 -0 -0 -1 -1 -1 -1 -2 -2 -2 -2 -1 -2 -2 -3 -3 -4 -4 -4 -4 -3 -2 -2 -2 -2 -3 -3 -3 -3 -3
3 2 1 0 0 0 0 1 1 1 0 0 0 0 0 -0 -0 -1 -1 -1 -2 -3 -3 -3 -2 -2 -2 -2 -3 -4 -4 -4 -4 -4 -3 -2 -2 -2 -2 -2 -2 -3 -3 -3
3 3 2 1 1 1 1 1 1 1 0 -0 -1 -1 -0 -0 -0 -0 -1 -2 -3 -3 -3 -3 -3 -3 -3 -3 -3 -4 -4 -4 -4 -4 -3 -2 -1 -2 -2 -1 -1 -2 -2 -3
4 3 3 2 2 2 2 2 2 1 0 -1 -1 -1 -0 -0 -0 -1 -2 -3 -3 -3 -3 -3 -3 -3 -3 -3 -3 -3 -4 -4 -4 -4 -3 -2 -2 -2 -2 -1 -1 -1 -2 -2
5 5 4 4 3 3 3 3 2 2 0 -1 -1 -1 -1 -1 -1 -1 -2 -2 -3 -3 -3 -3 -3 -3 -3 -3 -3 -3 -3 -4 -4 -4 -3 -3 -3 -2 -2 -2 -1 -1 -1 -2
6 6 5 5 5 4 4 3 2 1 -0 -2 -2 -2 -2 -2 -2 -2 -2 -2 -3 -3 -3 -3 -3 -3 -3 -3 -3 -3 -3 -3 -3 -3 -3 -3 -3 -2 -2 -2 -1 -1 -1 -2
7 7 6 6 5 5 3 2 1 -0 -1 -2 -3 -3 -3 -3 -3 -3 -3 -3 -3 -3 -3 -4 -4 -4 -4 -4 -3 -3 -3 -3 -3 -3 -3 -3 -2 -2 -2 -2 -1 -1 -2 -2
7 7 7 6 6 5 3 2 1 -0 -2 -2 -2 -3 -3 -3 -3 -3 -3 -3 -3 -3 -4 -4 -5 -5 -5 -4 -4 -3 -3 -3 -3 -3 -3 -3 -2 -2 -2 -1 -1 -2 -2 -2